Location: Unspecified
(0.0000°N, 0.0000°E)
Time: 13:39:34
(UTC+00:00)

Transit 2A - Pass Details

Date: 26 November 2019
Orbit: 602 x 957 km, 66.7° (Epoch: 08 December)

Event Time Altitude Azimuth Distance (km) Brightness Sun altitude
Rises 21:58:14 0° 298° (WNW) 3,061 - -56.1°
Reaches altitude 10° 22:02:24 10° 263° (W) 2,242 - -56.9°
Maximum altitude 22:03:49 11° 247° (WSW) 2,202 - -57.1°
Drops below altitude 10° 22:05:15 10° 230° (SW) 2,310 - -57.4°
Sets 22:09:51 0° 196° (SSW) 3,350 - -58.2°
